Time,TemperatureF,DewpointF,PressureIn,WindDirection,WindDirectionDegrees,WindSpeedMPH,WindSpeedGustMPH,Humidity,HourlyPrecipIn,Conditions,Clouds,dailyrainin,SoftwareType,DateUTC
2013-03-16 00:00:00,59.3,52.4,30.15,NE,49,0.0,0.0,78,0.00,,OVC,0.00,WeatherDisplay:10.37,2013-03-16 04:00:00,
2013-03-16 00:01:00,59.2,52.7,30.15,NE,49,0.0,0.0,79,0.00,,OVC,0.00,WeatherDisplay:10.37,2013-03-16 04:01:00,
2013-03-16 00:06:00,59.0,52.5,30.15,NE,49,0.0,0.0,79,0.00,,OVC,0.00,WeatherDisplay:10.37,2013-03-16 04:06:00,
2013-03-16 00:11:00,59.0,52.5,30.15,NE,49,0.0,0.0,79,0.00,,OVC,0.00,WeatherDisplay:10.37,2013-03-16 04:11:00,
2013-03-16 00:16:00,58.9,52.4,30.15,NE,49,0.0,0.0,79,0.00,,OVC,0.00,WeatherDisplay:10.37,2013-03-16 04:16:00,
2013-03-16 00:21:00,58.9,52.7,30.15,NE,49,0.0,0.0,80,0.00,,OVC,0.00,WeatherDisplay:10.37,2013-03-16 04:21:00,
2013-03-16 00:26:00,58.7,52.5,30.15,NE,49,0.0,0.0,80,0.00,,OVC,0.00,WeatherDisplay:10.37,2013-03-16 04:26:00,
2013-03-16 00:31:00,58.7,52.5,30.15,NE,49,0.0,0.0,80,0.00,,OVC,0.00,WeatherDisplay:10.37,2013-03-16 04:31:00,
2013-03-16 00:36:00,58.6,52.4,30.15,NE,49,0.0,0.0,80,0.00,,OVC,0.00,WeatherDisplay:10.37,2013-03-16 04:36:00,
2013-03-16 00:41:00,58.4,52.6,30.15,NE,49,0.0,0.0,81,0.00,,OVC,0.00,WeatherDisplay:10.37,2013-03-16 04:41:00,
2013-03-16 00:46:00,58.4,52.6,30.15,NE,49,0.0,0.0,81,0.00,,OVC,0.00,WeatherDisplay:10.37,2013-03-16 04:46:00,
2013-03-16 00:51:00,58.4,52.6,30.15,NE,49,0.0,0.0,81,0.00,,OVC,0.00,WeatherDisplay:10.37,2013-03-16 04:51:00,
2013-03-16 00:56:00,58.6,53.1,30.15,NE,48,0.0,0.0,82,0.00,,OVC,0.00,WeatherDisplay:10.37,2013-03-16 04:56:00,
2013-03-16 01:01:00,58.6,53.1,30.15,NE,48,0.0,0.0,82,0.00,,OVC,0.00,WeatherDisplay:10.37,2013-03-16 05:01:00,
2013-03-16 01:06:00,58.4,52.9,30.15,NE,48,0.0,0.0,82,0.00,,OVC,0.00,WeatherDisplay:10.37,2013-03-16 05:06:00,
2013-03-16 01:12:00,58.4,52.9,30.15,NE,48,0.0,0.0,82,0.00,,OVC,0.00,WeatherDisplay:10.37,2013-03-16 05:12:00,
2013-03-16 01:17:00,58.4,52.9,30.15,NE,48,0.0,0.0,82,0.00,,OVC,0.00,WeatherDisplay:10.37,2013-03-16 05:17:00,
2013-03-16 01:22:00,58.3,52.8,30.15,NE,48,0.0,0.0,82,0.00,,OVC,0.00,WeatherDisplay:10.37,2013-03-16 05:22:00,
2013-03-16 01:27:00,58.1,53.0,30.15,NE,48,0.0,0.0,83,0.00,,OVC,0.00,WeatherDisplay:10.37,2013-03-16 05:27:00,
2013-03-16 01:32:00,58.1,52.6,30.15,NE,48,0.0,0.0,82,0.00,,OVC,0.00,WeatherDisplay:10.37,2013-03-16 05:32:00,
2013-03-16 01:37:00,58.0,52.5,30.15,NE,48,0.0,0.0,82,0.00,,OVC,0.00,WeatherDisplay:10.37,2013-03-16 05:37:00,
2013-03-16 01:42:00,57.8,52.3,30.15,NE,48,0.0,0.0,82,0.00,,OVC,0.00,WeatherDisplay:10.37,2013-03-16 05:42:00,
2013-03-16 01:47:00,57.6,52.1,30.14,NE,48,0.0,0.0,82,0.00,,OVC,0.00,WeatherDisplay:10.37,2013-03-16 05:47:00,
2013-03-16 01:52:00,57.5,52.0,30.14,NE,48,0.0,0.0,82,0.00,,OVC,0.00,WeatherDisplay:10.37,2013-03-16 05:52:00,
2013-03-16 01:57:00,57.3,52.2,30.14,NE,48,0.0,0.0,83,0.00,,OVC,0.00,WeatherDisplay:10.37,2013-03-16 05:57:00,
2013-03-16 02:02:00,57.2,52.4,30.14,NE,48,0.0,0.0,84,0.00,,OVC,0.00,WeatherDisplay:10.37,2013-03-16 06:02:00,
2013-03-16 02:07:00,57.2,52.4,30.14,NE,48,0.0,0.0,84,0.00,,OVC,0.00,WeatherDisplay:10.37,2013-03-16 06:07:00,
2013-03-16 02:12:00,57.0,52.2,30.14,NE,48,0.0,0.0,84,0.00,,OVC,0.00,WeatherDisplay:10.37,2013-03-16 06:12:00,
2013-03-16 02:17:00,57.0,52.2,30.13,NE,48,0.0,0.0,84,0.00,,OVC,0.00,WeatherDisplay:10.37,2013-03-16 06:17:00,
2013-03-16 02:22:00,56.9,52.1,30.13,NE,48,0.0,0.0,84,0.00,,OVC,0.00,WeatherDisplay:10.37,2013-03-16 06:22:00,
2013-03-16 02:28:00,56.7,52.2,30.13,NE,48,0.0,0.0,85,0.00,,OVC,0.00,WeatherDisplay:10.37,2013-03-16 06:28:00,
2013-03-16 02:33:00,56.5,52.0,30.13,NE,48,0.0,0.0,85,0.00,,OVC,0.00,WeatherDisplay:10.37,2013-03-16 06:33:00,
2013-03-16 02:38:00,56.3,51.8,30.13,NE,48,0.0,0.0,85,0.00,,OVC,0.00,WeatherDisplay:10.37,2013-03-16 06:38:00,
2013-03-16 02:43:00,56.0,51.6,30.13,NE,48,0.0,0.0,85,0.00,,OVC,0.00,WeatherDisplay:10.37,2013-03-16 06:43:00,
2013-03-16 02:48:00,55.6,51.2,30.13,NE,48,0.0,0.0,85,0.00,,OVC,0.00,WeatherDisplay:10.37,2013-03-16 06:48:00,
2013-03-16 02:53:00,55.3,51.2,30.13,NE,48,0.0,0.0,86,0.00,,OVC,0.00,WeatherDisplay:10.37,2013-03-16 06:53:00,
2013-03-16 02:58:00,55.1,51.0,30.13,NE,48,0.0,0.0,86,0.00,,OVC,0.00,WeatherDisplay:10.37,2013-03-16 06:58:00,
2013-03-16 03:03:00,55.0,51.2,30.12,NE,48,0.0,0.0,87,0.00,,OVC,0.00,WeatherDisplay:10.37,2013-03-16 07:03:00,
2013-03-16 03:08:00,55.0,51.2,30.12,NE,48,0.0,0.0,87,0.00,,OVC,0.00,WeatherDisplay:10.37,2013-03-16 07:08:00,
2013-03-16 03:13:00,54.8,51.0,30.12,NE,48,0.0,0.0,87,0.00,,OVC,0.00,WeatherDisplay:10.37,2013-03-16 07:13:00,
2013-03-16 03:18:00,54.5,50.7,30.12,NE,48,0.0,0.0,87,0.00,,OVC,0.00,WeatherDisplay:10.37,2013-03-16 07:18:00,
2013-03-16 03:23:00,54.4,50.9,30.12,NE,48,0.0,0.0,88,0.00,,OVC,0.00,WeatherDisplay:10.37,2013-03-16 07:23:00,
2013-03-16 03:28:00,54.4,51.2,30.12,NE,48,0.0,0.0,89,0.00,,OVC,0.00,WeatherDisplay:10.37,2013-03-16 07:28:00,
2013-03-16 03:33:00,54.4,51.2,30.12,NE,48,0.0,0.0,89,0.00,,OVC,0.00,WeatherDisplay:10.37,2013-03-16 07:33:00,
2013-03-16 03:38:00,54.1,50.9,30.12,NE,48,0.0,0.0,89,0.00,,OVC,0.00,WeatherDisplay:10.37,2013-03-16 07:38:00,
2013-03-16 03:43:00,54.1,50.9,30.12,NE,48,0.0,0.0,89,0.00,,OVC,0.00,WeatherDisplay:10.37,2013-03-16 07:43:00,
2013-03-16 03:48:00,53.9,50.7,30.12,NE,48,0.0,0.0,89,0.00,,OVC,0.00,WeatherDisplay:10.37,2013-03-16 07:48:00,
2013-03-16 03:53:00,53.9,50.7,30.12,NE,48,0.0,0.0,89,0.00,,OVC,0.00,WeatherDisplay:10.37,2013-03-16 07:53:00,
2013-03-16 03:58:00,53.9,51.0,30.12,NE,48,0.0,0.0,90,0.00,,OVC,0.00,WeatherDisplay:10.37,2013-03-16 07:58:00,
2013-03-16 04:03:00,53.8,50.6,30.12,NE,48,0.0,0.0,89,0.00,,OVC,0.00,WeatherDisplay:10.37,2013-03-16 08:03:00,
2013-03-16 04:08:00,53.5,50.3,30.12,NE,48,0.0,0.0,89,0.00,,OVC,0.00,WeatherDisplay:10.37,2013-03-16 08:08:00,
2013-03-16 04:13:00,53.2,50.3,30.12,NE,48,0.0,0.0,90,0.00,,OVC,0.00,WeatherDisplay:10.37,2013-03-16 08:13:00,
2013-03-16 04:18:00,53.1,50.2,30.12,NE,48,0.0,0.0,90,0.00,,OVC,0.00,WeatherDisplay:10.37,2013-03-16 08:18:00,
2013-03-16 04:23:00,52.9,50.0,30.12,NE,48,0.0,0.0,90,0.00,,OVC,0.00,WeatherDisplay:10.37,2013-03-16 08:23:00,
2013-03-16 04:28:00,52.8,49.9,30.12,NE,48,0.0,0.0,90,0.00,,OVC,0.00,WeatherDisplay:10.37,2013-03-16 08:28:00,
2013-03-16 04:33:00,52.8,50.2,30.12,NE,48,0.0,0.0,91,0.00,,OVC,0.00,WeatherDisplay:10.37,2013-03-16 08:33:00,
2013-03-16 04:38:00,52.9,50.3,30.12,NE,48,0.0,0.0,91,0.00,,OVC,0.00,WeatherDisplay:10.37,2013-03-16 08:38:00,
2013-03-16 04:43:00,53.2,50.6,30.12,NE,48,0.0,0.0,91,0.00,,OVC,0.00,WeatherDisplay:10.37,2013-03-16 08:43:00,
2013-03-16 04:48:00,53.2,50.6,30.11,NE,48,0.0,0.0,91,0.00,,OVC,0.00,WeatherDisplay:10.37,2013-03-16 08:48:00,
2013-03-16 04:53:00,53.1,50.5,30.11,NE,48,0.0,0.0,91,0.00,,OVC,0.00,WeatherDisplay:10.37,2013-03-16 08:53:00,
2013-03-16 04:58:00,52.9,50.3,30.11,NE,48,0.0,0.0,91,0.00,,OVC,0.00,WeatherDisplay:10.37,2013-03-16 08:58:00,
2013-03-16 05:03:00,52.9,50.3,30.12,NE,48,0.0,0.0,91,0.00,,OVC,0.00,WeatherDisplay:10.37,2013-03-16 09:03:00,
2013-03-16 05:08:00,52.8,50.2,30.12,NE,48,0.0,0.0,91,0.00,,OVC,0.00,WeatherDisplay:10.37,2013-03-16 09:08:00,
2013-03-16 05:13:00,52.6,50.3,30.12,NE,48,0.0,0.0,92,0.00,,OVC,0.00,WeatherDisplay:10.37,2013-03-16 09:13:00,
2013-03-16 05:18:00,52.6,50.3,30.12,NE,48,0.0,0.0,92,0.00,,OVC,0.00,WeatherDisplay:10.37,2013-03-16 09:18:00,
2013-03-16 05:23:00,52.5,50.2,30.12,NE,48,0.0,0.0,92,0.00,,OVC,0.00,WeatherDisplay:10.37,2013-03-16 09:23:00,
2013-03-16 05:28:00,52.5,50.2,30.12,NE,48,0.0,0.0,92,0.00,,OVC,0.00,WeatherDisplay:10.37,2013-03-16 09:28:00,
2013-03-16 05:33:00,52.3,50.0,30.12,NE,48,0.0,0.0,92,0.00,,OVC,0.00,WeatherDisplay:10.37,2013-03-16 09:33:00,
2013-03-16 05:38:00,52.3,50.0,30.12,NE,48,0.0,0.0,92,0.00,,OVC,0.00,WeatherDisplay:10.37,2013-03-16 09:38:00,
2013-03-16 05:43:00,52.3,50.0,30.12,NE,48,0.0,0.0,92,0.00,,OVC,0.00,WeatherDisplay:10.37,2013-03-16 09:43:00,
2013-03-16 05:48:00,52.3,50.0,30.12,NE,48,0.0,0.0,92,0.00,,OVC,0.00,WeatherDisplay:10.37,2013-03-16 09:48:00,
2013-03-16 05:53:00,52.5,50.2,30.12,NE,48,0.0,0.0,92,0.00,,OVC,0.00,WeatherDisplay:10.37,2013-03-16 09:53:00,
2013-03-16 05:58:00,52.3,50.0,30.12,NE,48,0.0,0.0,92,0.00,,OVC,0.00,WeatherDisplay:10.37,2013-03-16 09:58:00,
2013-03-16 06:03:00,52.2,49.9,30.12,NE,48,0.0,0.0,92,0.00,,OVC,0.00,WeatherDisplay:10.37,2013-03-16 10:03:00,
2013-03-16 06:08:00,52.0,49.7,30.12,NE,48,0.0,0.0,92,0.00,,OVC,0.00,WeatherDisplay:10.37,2013-03-16 10:08:00,
2013-03-16 06:13:00,51.9,49.6,30.12,NE,48,0.0,0.0,92,0.00,,OVC,0.00,WeatherDisplay:10.37,2013-03-16 10:13:00,
2013-03-16 06:18:00,51.9,49.9,30.12,NE,48,0.0,0.0,93,0.00,,OVC,0.00,WeatherDisplay:10.37,2013-03-16 10:18:00,
2013-03-16 06:23:00,51.9,49.9,30.12,NE,48,0.0,0.0,93,0.00,,OVC,0.00,WeatherDisplay:10.37,2013-03-16 10:23:00,
2013-03-16 06:28:00,51.9,49.9,30.12,NE,48,0.0,0.0,93,0.00,,OVC,0.00,WeatherDisplay:10.37,2013-03-16 10:28:00,
2013-03-16 06:33:00,51.7,49.7,30.12,NE,48,0.0,0.0,93,0.00,,OVC,0.00,WeatherDisplay:10.37,2013-03-16 10:33:00,
2013-03-16 06:38:00,51.7,49.7,30.12,NE,48,0.0,0.0,93,0.00,,OVC,0.00,WeatherDisplay:10.37,2013-03-16 10:38:00,
2013-03-16 06:43:00,51.6,49.6,30.12,NE,48,0.0,0.0,93,0.00,,OVC,0.00,WeatherDisplay:10.37,2013-03-16 10:43:00,
2013-03-16 06:48:00,51.6,49.6,30.13,NE,48,0.0,0.0,93,0.00,,OVC,0.00,WeatherDisplay:10.37,2013-03-16 10:48:00,
2013-03-16 06:53:00,51.6,49.6,30.13,NE,48,0.0,0.0,93,0.00,,OVC,0.00,WeatherDisplay:10.37,2013-03-16 10:53:00,
2013-03-16 06:58:00,51.4,49.4,30.13,NE,48,0.0,0.0,93,0.00,,OVC,0.00,WeatherDisplay:10.37,2013-03-16 10:58:00,
2013-03-16 07:03:00,51.4,49.4,30.14,NE,48,0.0,0.0,93,0.00,,OVC,0.00,WeatherDisplay:10.37,2013-03-16 11:03:00,
2013-03-16 07:08:00,51.3,49.3,30.14,NE,48,0.0,0.0,93,0.00,,OVC,0.00,WeatherDisplay:10.37,2013-03-16 11:08:00,
2013-03-16 07:13:00,51.1,49.1,30.14,NE,48,0.0,0.0,93,0.00,,OVC,0.00,WeatherDisplay:10.37,2013-03-16 11:13:00,
2013-03-16 07:18:00,51.1,49.4,30.14,NE,48,0.0,0.0,94,0.00,,OVC,0.00,WeatherDisplay:10.37,2013-03-16 11:18:00,
2013-03-16 07:23:00,51.1,49.1,30.14,NE,48,0.0,0.0,93,0.00,,OVC,0.00,WeatherDisplay:10.37,2013-03-16 11:23:00,
2013-03-16 07:28:00,51.1,49.4,30.14,NE,48,0.0,0.0,94,0.00,,OVC,0.00,WeatherDisplay:10.37,2013-03-16 11:28:00,
2013-03-16 07:33:00,51.3,49.6,30.14,NE,48,0.0,0.0,94,0.00,,OVC,0.00,WeatherDisplay:10.37,2013-03-16 11:33:00,
2013-03-16 07:39:00,51.3,49.6,30.14,NE,48,0.0,0.0,94,0.00,,OVC,0.00,WeatherDisplay:10.37,2013-03-16 11:39:00,
2013-03-16 07:44:00,51.3,49.6,30.14,NE,48,0.0,0.0,94,0.00,,OVC,0.00,WeatherDisplay:10.37,2013-03-16 11:44:00,
2013-03-16 07:49:00,51.7,50.0,30.15,NE,48,0.0,0.0,94,0.00,,OVC,0.00,WeatherDisplay:10.37,2013-03-16 11:49:00,
2013-03-16 07:54:00,51.9,50.2,30.15,NE,48,0.0,0.0,94,0.00,,OVC,0.00,WeatherDisplay:10.37,2013-03-16 11:54:00,
2013-03-16 07:59:00,51.9,50.2,30.15,NE,48,0.0,0.0,94,0.00,,OVC,0.00,WeatherDisplay:10.37,2013-03-16 11:59:00,
2013-03-16 08:04:00,51.9,50.2,30.15,NE,48,0.0,0.0,94,0.00,,OVC,0.00,WeatherDisplay:10.37,2013-03-16 12:04:00,
2013-03-16 08:09:00,52.0,50.3,30.15,NE,48,0.0,0.0,94,0.00,,OVC,0.00,WeatherDisplay:10.37,2013-03-16 12:09:00,
2013-03-16 08:14:00,52.3,50.6,30.15,NE,48,0.0,0.0,94,0.00,,OVC,0.00,WeatherDisplay:10.37,2013-03-16 12:14:00,
2013-03-16 08:19:00,52.6,50.9,30.16,NE,48,0.0,0.0,94,0.00,,OVC,0.00,WeatherDisplay:10.37,2013-03-16 12:19:00,
2013-03-16 08:24:00,53.1,51.7,30.16,NE,48,0.0,0.0,95,0.00,,OVC,0.00,WeatherDisplay:10.37,2013-03-16 12:24:00,
2013-03-16 08:29:00,53.3,51.9,30.16,NE,48,0.0,0.0,95,0.00,,OVC,0.00,WeatherDisplay:10.37,2013-03-16 12:29:00,
2013-03-16 08:34:00,53.9,52.5,30.16,NE,48,0.0,0.0,95,0.00,,OVC,0.00,WeatherDisplay:10.37,2013-03-16 12:34:00,
2013-03-16 08:39:00,54.2,52.8,30.16,NE,48,0.0,0.0,95,0.00,,OVC,0.00,WeatherDisplay:10.37,2013-03-16 12:39:00,
2013-03-16 08:44:00,54.7,53.3,30.16,NE,48,0.0,0.0,95,0.00,,OVC,0.00,WeatherDisplay:10.37,2013-03-16 12:44:00,
2013-03-16 08:49:00,55.1,53.7,30.16,NE,48,0.0,0.0,95,0.00,,OVC,0.00,WeatherDisplay:10.37,2013-03-16 12:49:00,
2013-03-16 08:54:00,55.9,54.5,30.16,NE,47,0.0,0.0,95,0.00,,OVC,0.00,WeatherDisplay:10.37,2013-03-16 12:54:00,
2013-03-16 08:59:00,56.5,55.1,30.16,NE,47,0.0,0.0,95,0.00,,OVC,0.00,WeatherDisplay:10.37,2013-03-16 12:59:00,
2013-03-16 09:04:00,57.0,55.6,30.16,NE,47,0.0,0.0,95,0.00,CLR,OVC,0.00,WeatherDisplay:10.37,2013-03-16 13:04:00,
2013-03-16 09:09:00,57.5,56.1,30.16,NE,47,0.0,0.0,95,0.00,CLR,OVC,0.00,WeatherDisplay:10.37,2013-03-16 13:09:00,
2013-03-16 09:14:00,58.0,56.6,30.16,NE,47,0.0,0.0,95,0.00,CLR,OVC,0.00,WeatherDisplay:10.37,2013-03-16 13:14:00,
2013-03-16 09:19:00,58.3,56.9,30.16,NE,47,0.0,0.0,95,0.00,CLR,OVC,0.00,WeatherDisplay:10.37,2013-03-16 13:19:00,
2013-03-16 09:24:00,58.4,56.7,30.16,NE,47,0.0,0.0,94,0.00,CLR,OVC,0.00,WeatherDisplay:10.37,2013-03-16 13:24:00,
2013-03-16 09:29:00,58.4,56.7,30.16,NE,47,0.0,0.0,94,0.00,CLR,OVC,0.00,WeatherDisplay:10.37,2013-03-16 13:29:00,
2013-03-16 09:34:00,58.9,56.9,30.16,NE,47,0.0,0.0,93,0.00,CLR,OVC,0.00,WeatherDisplay:10.37,2013-03-16 13:34:00,
2013-03-16 09:39:00,59.3,57.0,30.16,NE,47,0.0,0.0,92,0.00,CLR,OVC,0.00,WeatherDisplay:10.37,2013-03-16 13:39:00,
2013-03-16 09:44:00,60.1,56.8,30.16,NE,47,0.0,0.0,89,0.00,CLR,OVC,0.00,WeatherDisplay:10.37,2013-03-16 13:44:00,
2013-03-16 09:49:00,61.2,55.7,30.16,NE,47,0.0,0.0,82,0.00,CLR,OVC,0.00,WeatherDisplay:10.37,2013-03-16 13:49:00,
2013-03-16 09:54:00,62.6,54.6,30.16,NE,47,0.0,0.0,75,0.00,CLR,OVC,0.00,WeatherDisplay:10.37,2013-03-16 13:54:00,
2013-03-16 09:59:00,63.7,52.9,30.16,NE,44,0.0,0.0,68,0.00,CLR,OVC,0.00,WeatherDisplay:10.37,2013-03-16 13:59:00,
2013-03-16 10:04:00,65.2,51.8,30.16,NE,44,0.0,0.0,62,0.00,,OVC,0.00,WeatherDisplay:10.37,2013-03-16 14:04:00,
2013-03-16 10:09:00,66.1,52.3,30.16,NE,44,0.0,0.0,61,0.00,,OVC,0.00,WeatherDisplay:10.37,2013-03-16 14:09:00,
2013-03-16 10:14:00,67.1,52.7,30.16,NE,45,0.0,0.0,60,0.00,,OVC,0.00,WeatherDisplay:10.37,2013-03-16 14:14:00,
2013-03-16 10:19:00,68.1,52.3,30.16,NE,45,0.0,0.0,57,0.00,,OVC,0.00,WeatherDisplay:10.37,2013-03-16 14:19:00,
2013-03-16 10:24:00,68.8,51.5,30.16,NE,56,4.0,4.0,54,0.00,,OVC,0.00,WeatherDisplay:10.37,2013-03-16 14:24:00,
2013-03-16 10:29:00,68.9,51.6,30.16,NE,52,0.0,0.0,54,0.00,,OVC,0.00,WeatherDisplay:10.37,2013-03-16 14:29:00,
2013-03-16 10:34:00,69.6,51.7,30.16,NE,55,4.0,4.0,53,0.00,,OVC,0.00,WeatherDisplay:10.37,2013-03-16 14:34:00,
2013-03-16 10:39:00,70.1,51.1,30.16,ENE,57,0.0,0.4,51,0.00,,OVC,0.00,WeatherDisplay:10.37,2013-03-16 14:39:00,
2013-03-16 10:44:00,70.4,51.4,30.16,NE,56,0.0,0.0,51,0.00,,OVC,0.00,WeatherDisplay:10.37,2013-03-16 14:44:00,
2013-03-16 10:49:00,70.6,51.1,30.16,ENE,62,0.0,0.0,50,0.00,,OVC,0.00,WeatherDisplay:10.37,2013-03-16 14:49:00,
2013-03-16 10:54:00,71.3,51.1,30.16,ESE,117,4.0,4.0,49,0.00,,OVC,0.00,WeatherDisplay:10.37,2013-03-16 14:54:00,
2013-03-16 10:59:00,71.5,50.8,30.15,SE,132,0.0,0.0,48,0.00,,OVC,0.00,WeatherDisplay:10.37,2013-03-16 14:59:00,
2013-03-16 11:04:00,71.8,51.6,30.15,ESE,115,3.5,3.5,49,0.00,,OVC,0.00,WeatherDisplay:10.37,2013-03-16 15:04:00,
2013-03-16 11:09:00,71.8,50.5,30.15,SE,137,1.2,0.0,47,0.00,,OVC,0.00,WeatherDisplay:10.37,2013-03-16 15:09:00,
2013-03-16 11:15:00,71.8,51.0,30.15,SE,138,0.0,0.0,48,0.00,,OVC,0.00,WeatherDisplay:10.37,2013-03-16 15:15:00,
2013-03-16 11:20:00,72.1,51.3,30.15,SE,127,0.0,0.0,48,0.00,,OVC,0.00,WeatherDisplay:10.37,2013-03-16 15:20:00,
2013-03-16 11:25:00,72.3,51.5,30.15,NNE,27,0.0,0.1,48,0.00,,OVC,0.00,WeatherDisplay:10.37,2013-03-16 15:25:00,
2013-03-16 11:30:00,72.8,51.4,30.15,ENE,61,9.2,9.2,47,0.00,,OVC,0.00,WeatherDisplay:10.37,2013-03-16 15:30:00,
2013-03-16 11:35:00,72.1,50.8,30.15,East,81,3.5,0.0,47,0.00,,OVC,0.00,WeatherDisplay:10.37,2013-03-16 15:35:00,
2013-03-16 11:40:00,72.1,51.3,30.15,ENE,78,2.0,2.0,48,0.00,,OVC,0.00,WeatherDisplay:10.37,2013-03-16 15:40:00,
2013-03-16 11:45:00,72.5,51.1,30.15,ESE,123,6.9,6.9,47,0.00,,OVC,0.00,WeatherDisplay:10.37,2013-03-16 15:45:00,
2013-03-16 11:50:00,72.5,49.3,30.15,ESE,123,0.0,0.0,44,0.00,,OVC,0.00,WeatherDisplay:10.37,2013-03-16 15:50:00,
2013-03-16 11:55:00,72.5,50.5,30.15,SSE,153,16.1,16.1,46,0.00,,OVC,0.00,WeatherDisplay:10.37,2013-03-16 15:55:00,
2013-03-16 12:00:00,72.8,50.8,30.15,SE,141,0.0,0.0,46,0.00,,OVC,0.00,WeatherDisplay:10.37,2013-03-16 16:00:00,
2013-03-16 12:05:00,72.7,50.7,30.15,ESE,117,0.0,0.0,46,0.00,,OVC,0.00,WeatherDisplay:10.37,2013-03-16 16:05:00,
2013-03-16 12:10:00,73.2,51.2,30.15,ESE,113,0.0,0.0,46,0.00,,OVC,0.00,WeatherDisplay:10.37,2013-03-16 16:10:00,
2013-03-16 12:15:00,73.2,50.0,30.14,SSE,160,10.0,10.0,44,0.00,,OVC,0.00,WeatherDisplay:10.37,2013-03-16 16:15:00,
2013-03-16 12:20:00,72.7,50.1,30.14,SSE,161,11.5,11.5,45,0.00,,OVC,0.00,WeatherDisplay:10.37,2013-03-16 16:20:00,
2013-03-16 12:25:00,72.8,51.4,30.14,SE,134,22.0,22.0,47,0.00,,OVC,0.00,WeatherDisplay:10.37,2013-03-16 16:25:00,
2013-03-16 12:30:00,73.3,50.7,30.14,SE,145,11.5,11.5,45,0.00,,OVC,0.00,WeatherDisplay:10.37,2013-03-16 16:30:00,
2013-03-16 12:35:00,73.2,51.8,30.14,SE,126,19.6,19.6,47,0.00,,OVC,0.00,WeatherDisplay:10.37,2013-03-16 16:35:00,
2013-03-16 12:40:00,73.3,50.7,30.14,SE,138,17.3,17.3,45,0.00,,OVC,0.00,WeatherDisplay:10.37,2013-03-16 16:40:00,
2013-03-16 12:45:00,73.5,52.0,30.13,South,188,10.4,10.4,47,0.00,,OVC,0.00,WeatherDisplay:10.37,2013-03-16 16:45:00,
2013-03-16 12:50:00,73.7,52.2,30.13,SSE,154,20.7,20.7,47,0.00,,OVC,0.00,WeatherDisplay:10.37,2013-03-16 16:50:00,
2013-03-16 12:55:00,73.7,52.8,30.13,ENE,70,9.2,9.2,48,0.00,,OVC,0.00,WeatherDisplay:10.37,2013-03-16 16:55:00,
2013-03-16 13:00:00,74.0,52.5,30.13,ESE,120,1.2,0.0,47,0.00,,OVC,0.00,WeatherDisplay:10.37,2013-03-16 17:00:00,
2013-03-16 13:05:00,73.7,52.2,30.13,NE,56,12.7,12.7,47,0.00,,OVC,0.00,WeatherDisplay:10.37,2013-03-16 17:05:00,
2013-03-16 13:10:00,73.7,53.3,30.13,East,86,14.0,14.0,49,0.00,,OVC,0.00,WeatherDisplay:10.37,2013-03-16 17:10:00,
2013-03-16 13:15:00,74.0,53.6,30.12,ESE,109,5.0,5.0,49,0.00,,OVC,0.00,WeatherDisplay:10.37,2013-03-16 17:15:00,
2013-03-16 13:20:00,74.0,53.6,30.12,SE,126,10.4,10.4,49,0.00,,OVC,0.00,WeatherDisplay:10.37,2013-03-16 17:20:00,
2013-03-16 13:25:00,74.0,52.5,30.12,SSE,159,15.0,15.0,47,0.00,,OVC,0.00,WeatherDisplay:10.37,2013-03-16 17:25:00,
2013-03-16 13:30:00,74.2,53.2,30.12,SE,138,10.4,10.4,48,0.00,,OVC,0.00,WeatherDisplay:10.37,2013-03-16 17:30:00,
2013-03-16 13:35:00,74.2,52.1,30.12,SE,132,18.4,18.4,46,0.00,,OVC,0.00,WeatherDisplay:10.37,2013-03-16 17:35:00,
2013-03-16 13:40:00,73.9,52.4,30.12,SSE,160,27.6,27.6,47,0.00,,OVC,0.00,WeatherDisplay:10.37,2013-03-16 17:40:00,
2013-03-16 13:45:00,74.2,52.7,30.11,SSE,166,20.7,20.7,47,0.00,,OVC,0.00,WeatherDisplay:10.37,2013-03-16 17:45:00,
2013-03-16 13:50:00,74.0,52.5,30.11,SE,140,19.6,19.6,47,0.00,,OVC,0.00,WeatherDisplay:10.37,2013-03-16 17:50:00,
2013-03-16 13:55:00,74.6,53.6,30.11,ENE,57,3.5,3.5,48,0.00,,OVC,0.00,WeatherDisplay:10.37,2013-03-16 17:55:00,
2013-03-16 14:00:00,74.2,52.7,30.11,SE,139,10.4,10.4,47,0.00,,OVC,0.00,WeatherDisplay:10.37,2013-03-16 18:00:00,
2013-03-16 14:05:00,74.0,53.1,30.11,South,184,10.4,10.4,48,0.00,,OVC,0.00,WeatherDisplay:10.37,2013-03-16 18:05:00,
2013-03-16 14:10:00,73.9,54.1,30.11,ENE,61,23.0,23.0,50,0.00,,OVC,0.00,WeatherDisplay:10.37,2013-03-16 18:10:00,
2013-03-16 14:15:00,73.2,54.0,30.10,South,179,19.6,19.6,51,0.00,,OVC,0.00,WeatherDisplay:10.37,2013-03-16 18:15:00,
2013-03-16 14:20:00,73.2,54.0,30.10,East,85,6.9,0.0,51,0.00,,OVC,0.00,WeatherDisplay:10.37,2013-03-16 18:20:00,
2013-03-16 14:25:00,73.3,54.6,30.10,ESE,123,11.5,11.5,52,0.00,,OVC,0.00,WeatherDisplay:10.37,2013-03-16 18:25:00,
2013-03-16 14:30:00,74.0,54.7,30.10,SE,134,15.0,15.0,51,0.00,,OVC,0.00,WeatherDisplay:10.37,2013-03-16 18:30:00,
2013-03-16 14:35:00,73.7,53.9,30.10,SSE,150,19.0,19.0,50,0.00,,OVC,0.00,WeatherDisplay:10.37,2013-03-16 18:35:00,
2013-03-16 14:40:00,73.5,53.2,30.10,SE,128,12.7,12.7,49,0.00,,OVC,0.00,WeatherDisplay:10.37,2013-03-16 18:40:00,
2013-03-16 14:45:00,73.9,54.1,30.09,NE,51,15.0,15.0,50,0.00,,OVC,0.00,WeatherDisplay:10.37,2013-03-16 18:45:00,
2013-03-16 14:50:00,74.7,54.3,30.09,ENE,59,9.2,9.2,49,0.00,,OVC,0.00,WeatherDisplay:10.37,2013-03-16 18:50:00,
2013-03-16 14:55:00,74.7,52.5,30.09,SE,146,20.7,20.7,46,0.00,,OVC,0.00,WeatherDisplay:10.37,2013-03-16 18:55:00,
2013-03-16 15:00:00,74.0,53.1,30.09,SE,130,17.3,17.3,48,0.00,,OVC,0.00,WeatherDisplay:10.37,2013-03-16 19:00:00,
2013-03-16 15:05:00,74.4,54.0,30.09,East,94,8.1,8.1,49,0.00,,OVC,0.00,WeatherDisplay:10.37,2013-03-16 19:05:00,
2013-03-16 15:10:00,74.7,53.1,30.09,ESE,118,3.5,3.5,47,0.00,,OVC,0.00,WeatherDisplay:10.37,2013-03-16 19:10:00,
2013-03-16 15:15:00,74.7,53.7,30.08,East,101,9.2,9.2,48,0.00,,OVC,0.00,WeatherDisplay:10.37,2013-03-16 19:15:00,
2013-03-16 15:20:00,74.7,54.3,30.08,ESE,121,10.4,10.4,49,0.00,,OVC,0.00,WeatherDisplay:10.37,2013-03-16 19:20:00,
2013-03-16 15:25:00,74.4,52.9,30.08,SSE,153,18.4,18.4,47,0.00,,OVC,0.00,WeatherDisplay:10.37,2013-03-16 19:25:00,
2013-03-16 15:30:00,73.5,54.8,30.07,ESE,117,3.5,3.5,52,0.00,,OVC,0.00,WeatherDisplay:10.37,2013-03-16 19:30:00,
2013-03-16 15:35:00,74.2,53.8,30.07,SE,130,10.4,10.4,49,0.00,,OVC,0.00,WeatherDisplay:10.37,2013-03-16 19:35:00,
2013-03-16 15:40:00,74.6,52.4,30.07,NE,34,8.1,8.1,46,0.00,,OVC,0.00,WeatherDisplay:10.37,2013-03-16 19:40:00,
2013-03-16 15:45:00,74.6,53.6,30.07,ESE,111,13.8,13.8,48,0.00,,OVC,0.00,WeatherDisplay:10.37,2013-03-16 19:45:00,
2013-03-16 15:50:00,74.7,53.1,30.07,SE,144,18.4,18.4,47,0.00,,OVC,0.00,WeatherDisplay:10.37,2013-03-16 19:50:00,
2013-03-16 15:56:00,74.2,52.1,30.07,SE,136,13.8,13.8,46,0.00,,OVC,0.00,WeatherDisplay:10.37,2013-03-16 19:56:00,
2013-03-16 16:01:00,74.4,52.9,30.07,ESE,111,9.2,9.2,47,0.00,,OVC,0.00,WeatherDisplay:10.37,2013-03-16 20:01:00,
2013-03-16 16:06:00,74.6,53.0,30.07,SE,131,9.0,9.0,47,0.00,,OVC,0.00,WeatherDisplay:10.37,2013-03-16 20:06:00,
2013-03-16 16:11:00,74.6,52.4,30.07,SE,140,6.9,6.9,46,0.00,,OVC,0.00,WeatherDisplay:10.37,2013-03-16 20:11:00,
2013-03-16 16:16:00,74.6,52.4,30.06,SE,146,23.0,23.0,46,0.00,,OVC,0.00,WeatherDisplay:10.37,2013-03-16 20:16:00,
2013-03-16 16:21:00,74.2,53.2,30.06,SSE,157,4.6,4.6,48,0.00,,OVC,0.00,WeatherDisplay:10.37,2013-03-16 20:21:00,
2013-03-16 16:26:00,74.2,52.7,30.06,SSE,159,8.0,0.0,47,0.00,,OVC,0.00,WeatherDisplay:10.37,2013-03-16 20:26:00,
2013-03-16 16:31:00,73.9,52.4,30.06,SE,137,8.0,8.0,47,0.00,,OVC,0.00,WeatherDisplay:10.37,2013-03-16 20:31:00,
2013-03-16 16:36:00,73.9,51.8,30.06,NNW,342,3.5,3.5,46,0.00,,OVC,0.00,WeatherDisplay:10.37,2013-03-16 20:36:00,
2013-03-16 16:41:00,73.9,51.8,30.06,East,90,8.1,8.1,46,0.00,,OVC,0.00,WeatherDisplay:10.37,2013-03-16 20:41:00,
2013-03-16 16:46:00,73.5,52.0,30.06,SE,137,11.5,11.5,47,0.00,,OVC,0.00,WeatherDisplay:10.37,2013-03-16 20:46:00,
2013-03-16 16:51:00,72.8,52.0,30.06,SE,130,18.4,18.4,48,0.00,,OVC,0.00,WeatherDisplay:10.37,2013-03-16 20:51:00,
2013-03-16 16:57:00,73.0,52.1,30.06,SE,131,3.5,3.5,48,0.00,,OVC,0.00,WeatherDisplay:10.37,2013-03-16 20:57:00,
2013-03-16 17:02:00,73.5,52.0,30.06,ESE,123,12.7,12.7,47,0.00,,OVC,0.00,WeatherDisplay:10.37,2013-03-16 21:02:00,
2013-03-16 17:07:00,73.3,51.8,30.06,ESE,121,19.6,19.6,47,0.00,,OVC,0.00,WeatherDisplay:10.37,2013-03-16 21:07:00,
2013-03-16 17:12:00,73.2,52.3,30.06,SE,140,11.5,11.5,48,0.00,,OVC,0.00,WeatherDisplay:10.37,2013-03-16 21:12:00,
2013-03-16 17:17:00,73.3,51.8,30.06,SE,125,4.6,4.6,47,0.00,,OVC,0.00,WeatherDisplay:10.37,2013-03-16 21:17:00,
2013-03-16 17:22:00,73.3,51.8,30.06,SSE,153,11.5,11.5,47,0.00,,OVC,0.00,WeatherDisplay:10.37,2013-03-16 21:22:00,
2013-03-16 17:27:00,73.2,51.8,30.06,SE,133,0.0,0.0,47,0.00,,OVC,0.00,WeatherDisplay:10.37,2013-03-16 21:27:00,
2013-03-16 17:32:00,73.3,51.8,30.06,NE,46,3.5,0.0,47,0.00,,OVC,0.00,WeatherDisplay:10.37,2013-03-16 21:32:00,
2013-03-16 17:37:00,73.2,51.8,30.06,SE,140,10.4,10.4,47,0.00,,OVC,0.00,WeatherDisplay:10.37,2013-03-16 21:37:00,
2013-03-16 17:42:00,73.0,52.7,30.06,SE,138,2.3,2.3,49,0.00,,OVC,0.00,WeatherDisplay:10.37,2013-03-16 21:42:00,
2013-03-16 17:47:00,72.8,52.0,30.06,ESE,117,10.4,10.4,48,0.00,,OVC,0.00,WeatherDisplay:10.37,2013-03-16 21:47:00,
2013-03-16 17:52:00,72.7,51.9,30.06,ESE,111,5.8,0.0,48,0.00,,OVC,0.00,WeatherDisplay:10.37,2013-03-16 21:52:00,
2013-03-16 17:57:00,72.5,51.7,30.06,SE,128,9.2,9.2,48,0.00,,OVC,0.00,WeatherDisplay:10.37,2013-03-16 21:57:00,
2013-03-16 18:02:00,72.0,51.8,30.07,SE,134,15.0,15.0,49,0.00,,OVC,0.00,WeatherDisplay:10.37,2013-03-16 22:02:00,
2013-03-16 18:07:00,71.8,51.6,30.07,NE,49,3.5,3.5,49,0.00,,OVC,0.00,WeatherDisplay:10.37,2013-03-16 22:07:00,
2013-03-16 18:12:00,71.6,52.5,30.07,SE,136,6.9,7.1,51,0.00,,OVC,0.00,WeatherDisplay:10.37,2013-03-16 22:12:00,
2013-03-16 18:17:00,71.5,51.9,30.07,SE,145,19.6,19.6,50,0.00,,OVC,0.00,WeatherDisplay:10.37,2013-03-16 22:17:00,
2013-03-16 18:22:00,71.3,51.7,30.07,ESE,118,11.5,11.5,50,0.00,,OVC,0.00,WeatherDisplay:10.37,2013-03-16 22:22:00,
2013-03-16 18:27:00,71.1,51.5,30.07,SSE,148,10.4,10.4,50,0.00,,OVC,0.00,WeatherDisplay:10.37,2013-03-16 22:27:00,
2013-03-16 18:32:00,70.9,51.3,30.07,SE,146,11.5,11.5,50,0.00,,OVC,0.00,WeatherDisplay:10.37,2013-03-16 22:32:00,
2013-03-16 18:37:00,70.8,51.2,30.07,SSE,148,19.6,19.6,50,0.00,,OVC,0.00,WeatherDisplay:10.37,2013-03-16 22:37:00,
2013-03-16 18:43:00,70.4,51.4,30.07,SE,140,11.5,11.5,51,0.00,,OVC,0.00,WeatherDisplay:10.37,2013-03-16 22:43:00,
2013-03-16 18:48:00,70.3,51.3,30.07,SE,142,0.0,1.1,51,0.00,,OVC,0.00,WeatherDisplay:10.37,2013-03-16 22:48:00,
2013-03-16 18:53:00,70.1,51.1,30.07,SE,126,15.0,15.0,51,0.00,,OVC,0.00,WeatherDisplay:10.37,2013-03-16 22:53:00,
2013-03-16 18:58:00,69.9,50.9,30.07,SE,143,28.8,28.8,51,0.00,,OVC,0.00,WeatherDisplay:10.37,2013-03-16 22:58:00,
2013-03-16 19:03:00,69.6,50.7,30.07,SE,143,17.3,17.3,51,0.00,,OVC,0.00,WeatherDisplay:10.37,2013-03-16 23:03:00,
2013-03-16 19:08:00,69.4,49.9,30.07,SE,130,20.7,20.7,50,0.00,,OVC,0.00,WeatherDisplay:10.37,2013-03-16 23:08:00,
2013-03-16 19:13:00,69.3,49.9,30.07,SE,136,21.9,21.9,50,0.00,,OVC,0.00,WeatherDisplay:10.37,2013-03-16 23:13:00,
2013-03-16 19:18:00,69.1,49.7,30.07,SE,131,19.6,19.6,50,0.00,,OVC,0.00,WeatherDisplay:10.37,2013-03-16 23:18:00,
2013-03-16 19:23:00,68.9,49.5,30.07,SE,137,13.8,13.8,50,0.00,,OVC,0.00,WeatherDisplay:10.37,2013-03-16 23:23:00,
2013-03-16 19:28:00,68.8,49.9,30.07,SSE,147,17.3,17.3,51,0.00,,OVC,0.00,WeatherDisplay:10.37,2013-03-16 23:28:00,
2013-03-16 19:33:00,68.6,49.7,30.07,SE,134,11.5,11.5,51,0.00,,OVC,0.00,WeatherDisplay:10.37,2013-03-16 23:33:00,
2013-03-16 19:38:00,68.4,50.6,30.07,SE,130,5.8,5.8,53,0.00,,OVC,0.00,WeatherDisplay:10.37,2013-03-16 23:38:00,
2013-03-16 19:43:00,68.3,51.0,30.07,SSE,158,11.5,11.5,54,0.00,,OVC,0.00,WeatherDisplay:10.37,2013-03-16 23:43:00,
2013-03-16 19:48:00,68.3,51.5,30.07,SE,138,18.4,18.4,55,0.00,,OVC,0.00,WeatherDisplay:10.37,2013-03-16 23:48:00,
2013-03-16 19:53:00,68.1,51.3,30.07,SE,142,13.8,13.8,55,0.00,,OVC,0.00,WeatherDisplay:10.37,2013-03-16 23:53:00,
2013-03-16 19:58:00,68.1,51.8,30.07,SE,125,5.0,5.0,56,0.00,,OVC,0.00,WeatherDisplay:10.37,2013-03-16 23:58:00,
2013-03-16 20:03:00,67.9,51.6,30.07,SE,130,6.9,6.9,56,0.00,,OVC,0.00,WeatherDisplay:10.37,2013-03-17 00:03:00,
2013-03-16 20:08:00,67.8,52.0,30.07,SE,127,6.0,6.0,57,0.00,,OVC,0.00,WeatherDisplay:10.37,2013-03-17 00:08:00,
2013-03-16 20:13:00,67.6,52.3,30.07,SE,128,6.0,6.0,58,0.00,,OVC,0.00,WeatherDisplay:10.37,2013-03-17 00:13:00,
2013-03-16 20:18:00,67.4,52.1,30.07,ESE,123,11.5,11.5,58,0.00,,OVC,0.00,WeatherDisplay:10.37,2013-03-17 00:18:00,
2013-03-16 20:23:00,67.4,52.6,30.07,SE,136,12.7,12.7,59,0.00,,OVC,0.00,WeatherDisplay:10.37,2013-03-17 00:23:00,
2013-03-16 20:28:00,67.4,52.6,30.07,SE,141,11.5,11.5,59,0.00,,OVC,0.00,WeatherDisplay:10.37,2013-03-17 00:28:00,
2013-03-16 20:33:00,67.3,52.9,30.08,SE,142,13.8,13.8,60,0.00,,OVC,0.00,WeatherDisplay:10.37,2013-03-17 00:33:00,
2013-03-16 20:38:00,67.3,52.9,30.08,SE,136,9.0,9.0,60,0.00,,OVC,0.00,WeatherDisplay:10.37,2013-03-17 00:38:00,
2013-03-16 20:43:00,67.3,52.9,30.08,SE,136,15.0,15.0,60,0.00,,OVC,0.00,WeatherDisplay:10.37,2013-03-17 00:43:00,
2013-03-16 20:48:00,67.3,52.9,30.08,SE,136,9.2,9.2,60,0.00,,OVC,0.00,WeatherDisplay:10.37,2013-03-17 00:48:00,
2013-03-16 20:53:00,67.1,52.7,30.08,SE,140,11.5,11.5,60,0.00,,OVC,0.00,WeatherDisplay:10.37,2013-03-17 00:53:00,
2013-03-16 20:58:00,67.1,52.7,30.08,SE,134,8.1,8.1,60,0.00,,OVC,0.00,WeatherDisplay:10.37,2013-03-17 00:58:00,
2013-03-16 21:03:00,66.9,52.6,30.09,SE,140,12.7,12.7,60,0.00,,OVC,0.00,WeatherDisplay:10.37,2013-03-17 01:03:00,
2013-03-16 21:08:00,66.9,52.6,30.09,SE,140,8.1,8.1,60,0.00,,OVC,0.00,WeatherDisplay:10.37,2013-03-17 01:08:00,
2013-03-16 21:13:00,66.9,52.6,30.09,SE,144,11.5,11.5,60,0.00,,OVC,0.00,WeatherDisplay:10.37,2013-03-17 01:13:00,
2013-03-16 21:18:00,66.9,52.6,30.09,SE,138,11.5,11.5,60,0.00,,OVC,0.00,WeatherDisplay:10.37,2013-03-17 01:18:00,
2013-03-16 21:23:00,66.8,52.5,30.09,SE,140,8.1,8.1,60,0.00,,OVC,0.00,WeatherDisplay:10.37,2013-03-17 01:23:00,
2013-03-16 21:28:00,66.8,52.5,30.09,SE,142,11.0,11.0,60,0.00,,OVC,0.00,WeatherDisplay:10.37,2013-03-17 01:28:00,
2013-03-16 21:33:00,66.6,52.7,30.09,SE,141,6.9,6.9,61,0.00,,OVC,0.00,WeatherDisplay:10.37,2013-03-17 01:33:00,
2013-03-16 21:38:00,66.6,52.7,30.09,SE,140,5.8,5.8,61,0.00,,OVC,0.00,WeatherDisplay:10.37,2013-03-17 01:38:00,
2013-03-16 21:43:00,66.4,52.5,30.09,SE,140,6.0,6.0,61,0.00,,OVC,0.00,WeatherDisplay:10.37,2013-03-17 01:43:00,
2013-03-16 21:48:00,66.3,52.4,30.10,SE,140,0.0,0.0,61,0.00,,OVC,0.00,WeatherDisplay:10.37,2013-03-17 01:48:00,
2013-03-16 21:53:00,66.1,52.7,30.10,SE,140,3.5,3.5,62,0.00,,OVC,0.00,WeatherDisplay:10.37,2013-03-17 01:53:00,
2013-03-16 21:58:00,66.0,52.6,30.10,SE,139,0.0,0.0,62,0.00,,OVC,0.00,WeatherDisplay:10.37,2013-03-17 01:58:00,
2013-03-16 22:03:00,65.8,52.9,30.10,SE,139,0.0,0.0,63,0.00,,OVC,0.00,WeatherDisplay:10.37,2013-03-17 02:03:00,
2013-03-16 22:08:00,65.6,52.7,30.10,SE,139,0.0,0.0,63,0.00,,OVC,0.00,WeatherDisplay:10.37,2013-03-17 02:08:00,
2013-03-16 22:13:00,65.5,53.0,30.10,SE,139,0.0,0.0,64,0.00,,OVC,0.00,WeatherDisplay:10.37,2013-03-17 02:13:00,
2013-03-16 22:18:00,65.2,52.7,30.11,SE,140,0.0,0.0,64,0.00,,OVC,0.00,WeatherDisplay:10.37,2013-03-17 02:18:00,
2013-03-16 22:24:00,64.7,52.7,30.11,SE,139,0.0,0.0,65,0.00,,OVC,0.00,WeatherDisplay:10.37,2013-03-17 02:24:00,
2013-03-16 22:29:00,64.3,52.7,30.11,SE,139,0.0,0.0,66,0.00,,OVC,0.00,WeatherDisplay:10.37,2013-03-17 02:29:00,
2013-03-16 22:34:00,64.0,52.8,30.11,SE,140,0.0,0.0,67,0.00,,OVC,0.00,WeatherDisplay:10.37,2013-03-17 02:34:00,
2013-03-16 22:39:00,63.7,52.9,30.11,SE,139,0.0,0.0,68,0.00,,OVC,0.00,WeatherDisplay:10.37,2013-03-17 02:39:00,
2013-03-16 22:44:00,63.4,52.7,30.11,SE,140,0.0,0.0,68,0.00,,OVC,0.00,WeatherDisplay:10.37,2013-03-17 02:44:00,
2013-03-16 22:49:00,63.1,52.4,30.11,SE,139,0.0,0.0,68,0.00,,OVC,0.00,WeatherDisplay:10.37,2013-03-17 02:49:00,
2013-03-16 22:54:00,62.7,52.4,30.11,SE,139,0.0,0.0,69,0.00,,OVC,0.00,WeatherDisplay:10.37,2013-03-17 02:54:00,
2013-03-16 22:59:00,62.6,52.7,30.11,SE,139,0.0,0.0,70,0.00,,OVC,0.00,WeatherDisplay:10.37,2013-03-17 02:59:00,
2013-03-16 23:04:00,62.3,52.8,30.10,SE,139,0.0,0.0,71,0.00,,OVC,0.00,WeatherDisplay:10.37,2013-03-17 03:04:00,
2013-03-16 23:09:00,62.1,52.6,30.10,SE,139,0.0,0.0,71,0.00,,OVC,0.00,WeatherDisplay:10.37,2013-03-17 03:09:00,
2013-03-16 23:14:00,62.0,52.5,30.10,SE,139,0.0,0.0,71,0.00,,OVC,0.00,WeatherDisplay:10.37,2013-03-17 03:14:00,
2013-03-16 23:19:00,61.8,52.7,30.10,SE,139,0.0,0.0,72,0.00,,OVC,0.00,WeatherDisplay:10.37,2013-03-17 03:19:00,
2013-03-16 23:24:00,61.6,52.9,30.10,SE,140,0.0,0.0,73,0.00,,OVC,0.00,WeatherDisplay:10.37,2013-03-17 03:24:00,
2013-03-16 23:29:00,61.2,52.8,30.11,SE,139,0.0,0.0,74,0.00,,OVC,0.00,WeatherDisplay:10.37,2013-03-17 03:29:00,
2013-03-16 23:34:00,60.9,52.9,30.11,SE,139,0.0,0.0,75,0.00,,OVC,0.00,WeatherDisplay:10.37,2013-03-17 03:34:00,
2013-03-16 23:39:00,60.5,52.5,30.11,SE,139,0.0,0.0,75,0.00,,OVC,0.00,WeatherDisplay:10.37,2013-03-17 03:39:00,
2013-03-16 23:44:00,60.4,52.8,30.10,SE,139,0.0,0.0,76,0.00,,OVC,0.00,WeatherDisplay:10.37,2013-03-17 03:44:00,
2013-03-16 23:49:00,60.2,53.0,30.10,SE,139,0.0,0.0,77,0.00,,OVC,0.00,WeatherDisplay:10.37,2013-03-17 03:49:00,
2013-03-16 23:54:00,60.1,52.9,30.10,SE,140,0.0,0.0,77,0.00,,OVC,0.00,WeatherDisplay:10.37,2013-03-17 03:54:00,
2013-03-16 23:59:00,59.9,53.0,30.10,SE,139,0.0,0.0,78,0.00,,OVC,0.00,WeatherDisplay:10.37,2013-03-17 03:59:00,